[[{"header":{"parameterUnit":"m.s-1","parameterCategory":1,"la1":30.2991,"la2":30.254,"lo1":-89.0895,"lo2":-89.0444,"dy":0.0017,"dx":0.0017,"nx":28,"ny":28,"refTime":"2023-08-20T03:00:00:Z","depth":0,"parameterNumber":2,"parameterNumberName":"U-component_of_WINDS"},"data":[0,0,0,0,0,0,0,0,0,0,0,0,0,0,0,0,0,0,0,0,0,0,0,0,0,0,0,0,0,0,0,0,0,0,0,0,0,0,0,0,0,0,0,0,0,0,0,0,0,0,0,0,0,0,0,0,0,0,-2.5296,-2.5296,0,-2.5239,-2.5238,-2.5237,-2.5177,-2.5177,-2.5176,-2.5175,-2.5117,-2.5116,-2.5116,0,0,0,0,0,0,0,0,0,0,0,0,0,-2.5358,-2.5357,-2.5296,-2.5296,-2.5295,-2.5239,-2.5238,-2.5237,-2.5178,-2.5177,-2.5176,-2.5175,-2.5117,-2.5116,-2.5116,0,0,0,0,0,0,0,0,0,0,0,0,0,-2.5319,-2.5357,-2.5296,-2.5258,-2.5254,-2.5239,-2.5238,-2.5237,-2.5178,-2.5177,-2.5175,-2.5174,-2.5118,-2.5117,-2.5115,-2.5133,0,0,-2.5112,-2.5111,0,0,0,0,0,0,0,0,-2.5321,-2.5317,-2.5265,-2.5261,-2.5256,-2.5214,-2.5238,-2.5202,-2.5178,-2.5207,-2.5175,-2.5174,-2.515,-2.5146,-2.5138,-2.513,-2.5128,-2.5112,-2.5111,-2.5111,-2.511,0,0,0,0,0,0,0,-2.5324,-2.5319,-2.5273,-2.5264,-2.5259,-2.5245,-2.5238,-2.5231,-2.5186,-2.5204,-2.52,-2.5194,-2.5148,-2.514,-2.5137,-2.5127,-2.5112,-2.5111,-2.511,-2.511,-2.5134,-2.5135,0,0,0,0,0,0,-2.5332,-2.5322,-2.5275,-2.5272,-2.5286,-2.5245,-2.5237,-2.5229,-2.5186,-2.5179,-2.5195,-2.5191,-2.5142,-2.5138,-2.5134,-2.5154,-2.5111,-2.511,-2.5109,-2.5133,-2.5134,-2.5136,0,0,0,0,0,0,-2.5334,-2.5329,-2.5278,-2.5295,-2.5288,-2.5245,-2.5236,-2.5228,-2.522,-2.5179,-2.5171,-2.5194,-2.5141,-2.5136,-2.5134,-2.5151,-2.5109,-2.5108,-2.5131,-2.5133,-2.5135,-2.5193,0,0,0,0,0,0,-2.5336,-2.533,-2.5335,-2.5296,-2.5287,-2.5278,-2.5237,-2.5228,-2.5218,-2.5213,-2.5177,-2.5169,-2.514,-2.5137,-2.5133,-2.5149,-2.5107,-2.5129,-2.5132,-2.5134,-2.5189,-2.5196,-2.5203,0,0,0,0,0,-2.5338,-2.5353,-2.5335,-2.533,-2.5293,-2.5279,-2.5274,-2.5239,-2.5219,-2.5225,-2.52,-2.5171,-2.515,-2.5137,-2.5133,-2.5148,-2.5128,-2.5131,-2.5134,-2.5186,-2.5195,-2.5202,0,0,0,0,0,0,-2.5394,-2.5347,-2.5327,-2.5329,-2.5309,-2.5269,-2.5274,-2.5249,-2.5233,-2.5229,-2.5187,-2.518,-2.5184,-2.5166,-2.5152,-2.5165,-2.5135,-2.5138,-2.5176,-2.5184,-2.5191,-2.5195,-2.5106,0,0,0,0,0,-2.5407,-2.5399,-2.5358,-2.5364,-2.5355,-2.5317,-2.5309,-2.5285,-2.5262,-2.5253,-2.5227,-2.5206,-2.5195,-2.5189,-2.5176,-2.5187,-2.5179,-2.5195,-2.5202,-2.5208,-2.5211,-2.5218,-2.5225,-2.5146,-2.5146,-2.5146,0,0,-2.5433,-2.5406,-2.5403,-2.5375,-2.5356,-2.535,-2.531,-2.5304,-2.53,-2.5252,-2.5249,-2.523,-2.5204,-2.521,-2.5211,-2.5195,-2.5231,-2.5212,-2.5217,-2.5216,-2.5221,-2.5229,-2.5236,-2.5148,-2.5147,-2.5147,0,0,-2.5477,-2.5455,-2.5459,-2.5442,-2.5414,-2.5389,-2.539,-2.5355,-2.534,-2.5337,-2.5302,-2.5296,-2.5278,-2.5262,-2.5251,-2.5294,-2.5267,-2.5291,-2.5326,-2.5333,-2.534,-2.5345,-2.5362,-2.5368,-2.5294,-2.5294,-2.5294,0,-2.5513,-2.5501,-2.5464,-2.5462,-2.5451,-2.5409,-2.5414,-2.5398,-2.5368,-2.5363,-2.5345,-2.5323,-2.5303,-2.5305,-2.5316,-2.5308,-2.531,-2.5294,-2.5342,-2.5347,-2.5351,-2.5367,-2.5373,-2.5297,-2.5296,-2.5296,-2.5296,0,-2.5547,-2.5541,-2.5547,-2.552,-2.551,-2.5511,-2.5476,-2.5471,-2.5449,-2.5426,-2.5425,-2.54,-2.5382,-2.5381,-2.5358,-2.5381,-2.5373,-2.5349,-2.5319,-2.5363,-2.5377,-2.5382,-2.5301,-2.53,-2.5299,-2.5298,0,0,-2.5623,-2.5578,-2.5581,-2.5569,-2.5537,-2.5531,-2.5532,-2.5515,-2.5513,-2.5494,-2.5495,-2.5482,-2.5461,-2.5449,-2.5425,-2.5431,-2.5469,-2.5407,-2.5406,-2.5421,-2.5495,-2.5514,-2.5521,-2.5452,-2.5453,-2.5453,-2.5498,0,-2.5662,-2.566,-2.5628,-2.5635,-2.563,-2.5591,-2.5592,-2.5573,-2.5553,-2.5547,-2.5525,-2.5517,-2.5489,-2.5482,-2.5486,-2.5463,-2.5484,-2.546,-2.5453,-2.5453,-2.5461,-2.5528,-2.5546,-2.559,-2.5503,-2.5504,-2.5505,0,-2.5706,-2.5692,-2.5699,-2.567,-2.5666,-2.5667,-2.5651,-2.5645,-2.5624,-2.5609,-2.5598,-2.5571,-2.5571,-2.5543,-2.5544,-2.5529,-2.5525,-2.5514,-2.5515,-2.5513,-2.5482,-2.5529,-2.5602,-2.5609,-2.5513,-2.5512,-2.5511,0,-2.5763,-2.5745,-2.5747,-2.5739,-2.5704,-2.5706,-2.5692,-2.567,-2.5663,-2.565,-2.5645,-2.5632,-2.5625,-2.5616,-2.5587,-2.5569,-2.5593,-2.5561,-2.5582,-2.5583,-2.5588,-2.5588,-2.5663,-2.5585,-2.5585,-2.5585,-2.5584,0,-2.581,-2.5816,-2.5773,-2.5774,-2.5781,-2.5746,-2.5754,-2.5736,-2.5717,-2.5716,-2.5682,-2.5682,-2.5643,-2.5639,-2.5616,-2.5622,-2.5619,-2.5608,-2.5602,-2.5612,-2.5613,-2.5608,-2.5605,-2.5586,-2.5586,-2.5586,-2.5585,0,-2.5873,-2.5844,-2.5845,-2.5813,-2.5805,-2.5812,-2.5785,-2.5786,-2.5765,-2.5764,-2.5762,-2.5729,-2.5723,-2.5694,-2.568,-2.5665,-2.5679,-2.5667,-2.5686,-2.5683,-2.5705,-2.5704,-2.578,-2.5789,-2.5704,-2.5705,-2.5706,0,-2.5905,-2.5909,-2.5879,-2.5876,-2.5863,-2.5858,-2.5852,-2.5819,-2.5814,-2.5792,-2.5797,-2.5788,-2.5779,-2.5772,-2.5747,-2.5738,-2.5726,-2.5753,-2.5724,-2.5734,-2.5728,-2.5728,-2.573,-2.5759,-2.576,-2.5761,-2.5762,0,-2.5966,-2.5952,-2.5944,-2.5932,-2.5926,-2.5914,-2.5901,-2.5901,-2.5864,-2.5861,-2.5854,-2.5848,-2.5835,-2.5828,-2.5815,-2.5801,-2.5777,-2.5772,-2.5776,-2.5786,-2.5797,-2.5793,-2.5704,-2.577,-2.5769,-2.5768,-2.5768,-2.5768,-2.6015,-2.6018,-2.5998,-2.5991,-2.5978,-2.5967,-2.5968,-2.5948,-2.5942,-2.5929,-2.591,-2.5907,-2.589,-2.587,-2.5859,-2.5857,-2.5842,-2.5849,-2.585,-2.5852,-2.5858,-2.5798,-2.5855,-2.5854,-2.5854,-2.5854,-2.5854,0,-2.6075,-2.6061,-2.6055,-2.6039,-2.6034,-2.6011,-2.5997,-2.5994,-2.5992,-2.5978,-2.597,-2.5965,-2.5958,-2.5935,-2.5926,-2.593,-2.5919,-2.5929,-2.5929,-2.5926,-2.5871,-2.5868,-2.5938,-2.5938,-2.5938,-2.5938,-2.5938,-2.5938,-2.6106,-2.6111,-2.6095,-2.6094,-2.608,-2.6077,-2.6071,-2.6062,-2.605,-2.6046,-2.604,-2.6025,-2.6008,-2.5999,-2.5993,-2.5986,-2.5985,-2.6,-2.599,-2.5938,-2.593,-2.5922,-2.592,-2.6,-2.6,-2.6046,-2.6046,-2.6046]},{"header":{"parameterUnit":"m.s-1","parameterCategory":1,"la1":30.2991,"la2":30.254,"lo1":-89.0895,"lo2":-89.0444,"dy":0.0017,"dx":0.0017,"nx":28,"ny":28,"refTime":"2023-08-20T03:00:00:Z","depth":0,"parameterNumber":3,"parameterNumberName":"V-component_of_WINDS"},"data":[0,0,0,0,0,0,0,0,0,0,0,0,0,0,0,0,0,0,0,0,0,0,0,0,0,0,0,0,0,0,0,0,0,0,0,0,0,0,0,0,0,0,0,0,0,0,0,0,0,0,0,0,0,0,0,0,0,0,1.5595,1.5595,0,1.555,1.5549,1.5549,1.5585,1.5587,1.5588,1.559,1.5537,1.5534,1.5531,0,0,0,0,0,0,0,0,0,0,0,0,0,1.5708,1.5705,1.5595,1.5595,1.5594,1.555,1.5549,1.5549,1.5585,1.5587,1.5589,1.559,1.5538,1.5535,1.5531,0,0,0,0,0,0,0,0,0,0,0,0,0,1.566,1.5705,1.5595,1.5607,1.5608,1.555,1.5549,1.5549,1.5584,1.5587,1.5589,1.5591,1.5539,1.5535,1.5531,1.5457,0,0,1.5518,1.5516,0,0,0,0,0,0,0,0,1.5663,1.5656,1.5606,1.5606,1.5607,1.5576,1.557,1.5518,1.5584,1.5593,1.559,1.5592,1.5548,1.5543,1.5529,1.5455,1.5453,1.5517,1.5515,1.5513,1.5512,0,0,0,0,0,0,0,1.5666,1.5658,1.5577,1.5605,1.5606,1.5613,1.5609,1.556,1.5557,1.5592,1.5595,1.5589,1.5548,1.5533,1.5528,1.5452,1.5517,1.5514,1.5511,1.5509,1.5314,1.5312,0,0,0,0,0,0,1.5669,1.566,1.5579,1.5576,1.5641,1.5609,1.5604,1.5583,1.5558,1.5557,1.5588,1.5591,1.5539,1.5533,1.5526,1.5437,1.5513,1.5509,1.5506,1.5317,1.5314,1.5311,0,0,0,0,0,0,1.5671,1.5661,1.558,1.5619,1.5609,1.5604,1.5581,1.5581,1.5566,1.5555,1.5554,1.5573,1.5541,1.5532,1.5474,1.5436,1.5507,1.5503,1.532,1.5316,1.5312,1.5259,0,0,0,0,0,0,1.5674,1.5662,1.5635,1.5618,1.5607,1.5531,1.5578,1.5578,1.5559,1.5564,1.554,1.5539,1.5542,1.5481,1.547,1.5431,1.55,1.5323,1.5318,1.5313,1.5264,1.5253,1.5245,0,0,0,0,0,1.5678,1.5621,1.5634,1.5623,1.5574,1.5528,1.5522,1.5528,1.5556,1.5528,1.5521,1.5539,1.5443,1.5474,1.5463,1.5422,1.5325,1.5319,1.5314,1.5268,1.5255,1.5245,0,0,0,0,0,0,1.5631,1.5619,1.5633,1.5569,1.555,1.5535,1.5499,1.5515,1.5486,1.5491,1.5499,1.5493,1.5432,1.5422,1.5458,1.5349,1.5388,1.538,1.5357,1.5345,1.5336,1.5338,1.5496,0,0,0,0,0,1.5614,1.558,1.557,1.5515,1.5505,1.5504,1.5484,1.5491,1.5471,1.5462,1.5451,1.5429,1.5393,1.5369,1.5336,1.5264,1.5258,1.523,1.5221,1.5213,1.5204,1.5163,1.5149,1.5291,1.5291,1.5292,0,0,1.5576,1.5565,1.5543,1.5505,1.5491,1.5453,1.5496,1.5455,1.5427,1.5455,1.54,1.5391,1.5367,1.5301,1.5271,1.529,1.5164,1.5205,1.5199,1.5194,1.5155,1.5142,1.513,1.5287,1.5288,1.5289,0,0,1.5488,1.5478,1.543,1.5416,1.5395,1.5395,1.5383,1.5367,1.5362,1.5307,1.5328,1.5294,1.5233,1.5214,1.5197,1.5104,1.5118,1.5093,1.504,1.5,1.4989,1.4979,1.4943,1.493,1.5085,1.5085,1.5085,0,1.5443,1.539,1.5402,1.5359,1.5341,1.5369,1.5318,1.5303,1.5272,1.5257,1.528,1.5204,1.519,1.5119,1.5097,1.5083,1.5067,1.5093,1.499,1.498,1.4971,1.4936,1.4923,1.5082,1.5082,1.5082,1.5083,0,1.5334,1.5297,1.526,1.5231,1.5209,1.5162,1.5166,1.5142,1.5152,1.5149,1.5092,1.5076,1.504,1.5024,1.5033,1.4954,1.4966,1.499,1.5028,1.4954,1.4921,1.4908,1.5077,1.5078,1.5079,1.508,0,0,1.5211,1.5192,1.5178,1.5164,1.5144,1.5114,1.5069,1.5035,1.5013,1.4992,1.4951,1.49,1.4922,1.4902,1.4909,1.4874,1.4798,1.4902,1.4901,1.488,1.4707,1.4687,1.4671,1.481,1.4808,1.4806,1.4708,0,1.512,1.5042,1.5053,1.4977,1.4941,1.4968,1.4928,1.491,1.4907,1.4875,1.4871,1.4833,1.4867,1.4854,1.4822,1.4814,1.4763,1.4822,1.4769,1.4767,1.477,1.4655,1.4633,1.4541,1.4696,1.4694,1.4692,0,1.5002,1.4978,1.4899,1.4884,1.4869,1.4833,1.4803,1.4773,1.4753,1.4753,1.4732,1.4745,1.4697,1.4741,1.4673,1.4714,1.4693,1.4687,1.4683,1.4675,1.4722,1.4639,1.4513,1.4497,1.4673,1.4674,1.4676,0,1.4916,1.4864,1.4809,1.4798,1.478,1.4754,1.4745,1.4728,1.4707,1.468,1.4666,1.4634,1.4615,1.4589,1.4592,1.4624,1.4523,1.4567,1.4518,1.4518,1.4492,1.4493,1.4356,1.4486,1.4486,1.4486,1.4487,0,1.481,1.476,1.4771,1.4736,1.4681,1.4694,1.4637,1.4632,1.4616,1.458,1.4602,1.4567,1.4576,1.4541,1.4544,1.4486,1.4478,1.4475,1.4475,1.447,1.447,1.4454,1.4458,1.4483,1.4484,1.4484,1.4485,0,1.4703,1.4708,1.465,1.4639,1.4636,1.4594,1.4584,1.4551,1.4551,1.4505,1.4495,1.4493,1.4453,1.4456,1.441,1.4412,1.4339,1.4349,1.4346,1.4347,1.4297,1.43,1.4141,1.4119,1.4267,1.4266,1.4265,0,1.4633,1.4595,1.4581,1.4559,1.4549,1.4514,1.4493,1.4505,1.4482,1.4457,1.4426,1.4389,1.4359,1.4294,1.4287,1.4252,1.4259,1.4206,1.4253,1.4249,1.4253,1.4254,1.4248,1.4195,1.4193,1.4192,1.4191,0,1.4507,1.4512,1.4482,1.4453,1.4428,1.4405,1.4385,1.4365,1.4375,1.4348,1.4308,1.4285,1.424,1.4201,1.4168,1.4157,1.4173,1.4177,1.4163,1.4155,1.4153,1.415,1.4316,1.4179,1.418,1.4181,1.4181,1.4182,1.4413,1.438,1.4365,1.4331,1.4317,1.4298,1.4266,1.4263,1.4231,1.4195,1.4205,1.4159,1.414,1.4097,1.4083,1.4047,1.4065,1.4046,1.404,1.4034,1.4027,1.4163,1.4041,1.4041,1.4042,1.4042,1.4042,0,1.4285,1.4278,1.4246,1.4217,1.419,1.4213,1.4191,1.4166,1.4126,1.4108,1.4079,1.4033,1.3996,1.3988,1.3952,1.3924,1.393,1.3914,1.3913,1.391,1.4014,1.4028,1.3909,1.3909,1.3909,1.3909,1.3909,1.3909,1.4215,1.416,1.4163,1.4101,1.4093,1.405,1.4035,1.4017,1.4002,1.395,1.392,1.3917,1.3901,1.3865,1.3831,1.383,1.3813,1.3792,1.3793,1.389,1.3903,1.3915,1.3928,1.379,1.379,1.3692,1.3691,1.369]}]]